| time (UTC) | temp C | wind direction | speed KPH | gust KPH | rain 1hr cm | rain 24hr cm | rain mn cm | humidity % | barometer mb |
| 20260906042011 | 14 | 104 | 0.0 | 0.0 | 0.00 | 0.00 | 0.00 | 77 | 1020.2 |
| 20260906041508 | 14 | 112 | 0.0 | 3.2 | 0.00 | 0.00 | 0.00 | 77 | 1020.2 |
| 20260906041007 | 15 | 117 | 0.0 | 0.0 | 0.00 | 0.00 | 0.00 | 77 | 1020.2 |
| 20260906040502 | 15 | 120 | 0.0 | 0.0 | 0.00 | 0.00 | 0.00 | 76 | 1020.2 |
| 20260906035957 | 15 | 109 | 0.0 | 1.6 | 0.00 | 0.00 | 0.00 | 76 | 1020.2 |
| 20260906035452 | 15 | 105 | 0.0 | 0.0 | 0.00 | 0.00 | 0.00 | 77 | 1020.2 |
| 20260906034949 | 15 | 109 | 0.0 | 1.6 | 0.00 | 0.00 | 0.00 | 77 | 1020.2 |
| 20260906034448 | 15 | 101 | 0.0 | 1.6 | 0.00 | 0.00 | 0.00 | 77 | 1020.2 |
| 20260906033938 | 15 | 96 | 0.0 | 1.6 | 0.00 | 0.00 | 0.00 | 78 | 1020.2 |
| 20260906033432 | 15 | 109 | 0.0 | 1.6 | 0.00 | 0.00 | 0.00 | 78 | 1020.2 |
| 20260906032928 | 15 | 105 | 0.0 | 1.6 | 0.00 | 0.00 | 0.00 | 79 | 1020.2 |
| 20260906032425 | 14 | 145 | 0.0 | 4.8 | 0.00 | 0.00 | 0.00 | 79 | 1020.2 |
| 20260906031918 | 14 | 75 | 0.0 | 1.6 | 0.00 | 0.00 | 0.00 | 80 | 1020.2 |
| 20260906031414 | 14 | 95 | 0.0 | 4.8 | 0.00 | 0.00 | 0.00 | 80 | 1020.2 |
| 20260906030909 | 14 | 98 | 0.0 | 1.6 | 0.00 | 0.00 | 0.00 | 80 | 1020.2 |
| 20260906030404 | 14 | 48 | 1.6 | 1.6 | 0.00 | 0.00 | 0.00 | 80 | 1020.2 |
| 20260906025859 | 15 | 103 | 0.0 | 4.8 | 0.00 | 0.00 | 0.00 | 79 | 1020.6 |
| 20260906025358 | 15 | 85 | 0.0 | 1.6 | 0.00 | 0.00 | 0.00 | 79 | 1020.2 |
| 20260906024857 | 15 | 101 | 0.0 | 1.6 | 0.00 | 0.00 | 0.00 | 79 | 1020.2 |
| 20260906024357 | 15 | 295 | 1.6 | 3.2 | 0.00 | 0.00 | 0.00 | 78 | 1020.2 |
| 20260906023852 | 15 | 106 | 1.6 | 3.2 | 0.00 | 0.00 | 0.00 | 78 | 1020.2 |
| 20260906023349 | 15 | 352 | 1.6 | 4.8 | 0.00 | 0.00 | 0.00 | 77 | 1020.2 |
| 20260906022849 | 16 | 9 | 3.2 | 4.8 | 0.00 | 0.00 | 0.00 | 73 | 1020.6 |
| 20260906022344 | 17 | 44 | 4.8 | 11.3 | 0.00 | 0.00 | 0.00 | 71 | 1020.2 |
| 20260906021840 | 17 | 20 | 1.6 | 3.2 | 0.00 | 0.00 | 0.00 | 67 | 1020.2 |
| 20260906021339 | 17 | 276 | 6.4 | 9.7 | 0.00 | 0.00 | 0.00 | 66 | 1019.9 |
| 20260906020834 | 18 | 106 | 0.0 | 1.6 | 0.00 | 0.00 | 0.00 | 64 | 1020.2 |
| 20260906020333 | 18 | 107 | 1.6 | 4.8 | 0.00 | 0.00 | 0.00 | 63 | 1019.9 |
| 20260906015828 | 18 | 89 | 1.6 | 3.2 | 0.00 | 0.00 | 0.00 | 63 | 1019.9 |
| 20260906015326 | 18 | 104 | 3.2 | 4.8 | 0.00 | 0.00 | 0.00 | 62 | 1019.9 |
| 20260906014821 | 18 | 214 | 3.2 | 4.8 | 0.00 | 0.00 | 0.00 | 61 | 1019.9 |
| 20260906014316 | 19 | 95 | 0.0 | 1.6 | 0.00 | 0.00 | 0.00 | 60 | 1019.6 |
| 20260906013812 | 19 | 159 | 1.6 | 1.6 | 0.00 | 0.00 | 0.00 | 59 | 1019.9 |
| 20260906013307 | 19 | 90 | 1.6 | 1.6 | 0.00 | 0.00 | 0.00 | 58 | 1019.9 |
| 20260906012803 | 19 | 104 | 0.0 | 3.2 | 0.00 | 0.00 | 0.00 | 58 | 1019.9 |
| 20260906012258 | 20 | 68 | 1.6 | 4.8 | 0.00 | 0.00 | 0.00 | 58 | 1019.6 |
| 20260906011752 | 20 | 70 | 3.2 | 3.2 | 0.00 | 0.00 | 0.00 | 58 | 1019.6 |
| 20260906011251 | 20 | 67 | 1.6 | 6.4 | 0.00 | 0.00 | 0.00 | 57 | 1019.6 |
| 20260906010747 | 20 | 319 | 3.2 | 3.2 | 0.00 | 0.00 | 0.00 | 57 | 1019.6 |
| 20260906010244 | 21 | 98 | 1.6 | 3.2 | 0.00 | 0.00 | 0.00 | 56 | 1019.6 |
| 20260906005738 | 20 | 110 | 1.6 | 3.2 | 0.00 | 0.00 | 0.00 | 57 | 1019.6 |
| 20260906005237 | 20 | 109 | 1.6 | 3.2 | 0.00 | 0.00 | 0.00 | 57 | 1019.6 |
| 20260906004731 | 20 | 109 | 1.6 | 6.4 | 0.00 | 0.00 | 0.00 | 57 | 1019.6 |
| 20260906004226 | 20 | 345 | 1.6 | 3.2 | 0.00 | 0.00 | 0.00 | 57 | 1019.6 |
| 20260906003722 | 20 | 200 | 4.8 | 6.4 | 0.00 | 0.00 | 0.00 | 57 | 1019.6 |
| 20260906003217 | 21 | 145 | 0.0 | 3.2 | 0.00 | 0.00 | 0.00 | 54 | 1019.2 |
| 20260906002711 | 21 | 121 | 0.0 | 3.2 | 0.00 | 0.00 | 0.00 | 55 | 1019.2 |
| 20260906002201 | 22 | 38 | 3.2 | 4.8 | 0.00 | 0.00 | 0.00 | 53 | 1019.2 |
| 20260906001656 | 22 | 2 | 1.6 | 3.2 | 0.00 | 0.00 | 0.00 | 48 | 1019.2 |
| 20260906001156 | 22 | 105 | 1.6 | 3.2 | 0.00 | 0.00 | 0.00 | 49 | 1019.2 |
| 20260906000652 | 22 | 184 | 3.2 | 3.2 | 0.00 | 0.00 | 0.00 | 50 | 1019.2 |
| 20260906000147 | 22 | 112 | 4.8 | 9.7 | 0.00 | 0.00 | 0.00 | 51 | 1019.2 |
| 20260905235646 | 22 | 177 | 3.2 | 6.4 | 0.00 | 0.00 | 0.00 | 51 | 1019.2 |
| 20260905235141 | 22 | 167 | 4.8 | 4.8 | 0.00 | 0.00 | 0.00 | 51 | 1019.2 |
| 20260905234636 | 21 | 122 | 0.0 | 6.4 | 0.00 | 0.00 | 0.00 | 52 | 1019.2 |
| 20260905234131 | 21 | 100 | 4.8 | 9.7 | 0.00 | 0.00 | 0.00 | 53 | 1019.2 |
| 20260905233626 | 21 | 94 | 8.0 | 11.3 | 0.00 | 0.00 | 0.00 | 52 | 1019.2 |
| 20260905233120 | 22 | 82 | 3.2 | 12.9 | 0.00 | 0.00 | 0.00 | 52 | 1019.2 |
| 20260905232616 | 21 | 107 | 1.6 | 3.2 | 0.00 | 0.00 | 0.00 | 53 | 1019.2 |
| 20260905232111 | 21 | 103 | 1.6 | 3.2 | 0.00 | 0.00 | 0.00 | 54 | 1019.2 |
| 20260905231606 | 22 | 174 | 4.8 | 4.8 | 0.00 | 0.00 | 0.00 | 53 | 1019.2 |
| 20260905231102 | 22 | 154 | 3.2 | 4.8 | 0.00 | 0.00 | 0.00 | 53 | 1019.6 |
| 20260905230602 | 22 | 101 | 3.2 | 3.2 | 0.00 | 0.00 | 0.00 | 52 | 1019.6 |
| 20260905230100 | 22 | 110 | 0.0 | 3.2 | 0.00 | 0.00 | 0.00 | 54 | 1019.6 |
| 20260905225554 | 21 | 110 | 1.6 | 4.8 | 0.00 | 0.00 | 0.00 | 56 | 1019.6 |
| 20260905225049 | 21 | 115 | 1.6 | 3.2 | 0.00 | 0.00 | 0.00 | 55 | 1019.6 |
| 20260905224544 | 21 | 122 | 1.6 | 3.2 | 0.00 | 0.00 | 0.00 | 56 | 1019.6 |
| 20260905224043 | 22 | 95 | 3.2 | 6.4 | 0.00 | 0.00 | 0.00 | 55 | 1019.6 |
| 20260905223541 | 21 | 85 | 1.6 | 3.2 | 0.00 | 0.00 | 0.00 | 56 | 1019.6 |
| 20260905223037 | 21 | 98 | 1.6 | 3.2 | 0.00 | 0.00 | 0.00 | 57 | 1019.6 |
| 20260905222537 | 21 | 49 | 3.2 | 4.8 | 0.00 | 0.00 | 0.00 | 56 | 1019.6 |
| 20260905222032 | 22 | 51 | 3.2 | 4.8 | 0.00 | 0.00 | 0.00 | 54 | 1019.6 |
| 20260905221529 | 21 | 354 | 1.6 | 6.4 | 0.00 | 0.00 | 0.00 | 55 | 1019.6 |
| 20260905221024 | 21 | 27 | 1.6 | 3.2 | 0.00 | 0.00 | 0.00 | 56 | 1019.6 |
| 20260905220520 | 21 | 86 | 3.2 | 9.7 | 0.00 | 0.00 | 0.00 | 56 | 1019.6 |
| 20260905220016 | 21 | 77 | 1.6 | 4.8 | 0.00 | 0.00 | 0.00 | 57 | 1019.6 |
| 20260905215509 | 21 | 53 | 3.2 | 4.8 | 0.00 | 0.00 | 0.00 | 56 | 1019.6 |
| 20260905215000 | 21 | 71 | 3.2 | 6.4 | 0.00 | 0.00 | 0.00 | 57 | 1019.6 |
| 20260905214456 | 21 | 40 | 4.8 | 9.7 | 0.00 | 0.00 | 0.00 | 58 | 1019.6 |
| 20260905213956 | 21 | 0 | 4.8 | 6.4 | 0.00 | 0.00 | 0.00 | 56 | 1019.6 |
| 20260905213452 | 21 | 71 | 3.2 | 4.8 | 0.00 | 0.00 | 0.00 | 57 | 1019.9 |
| 20260905212946 | 21 | 83 | 3.2 | 3.2 | 0.00 | 0.00 | 0.00 | 58 | 1019.6 |
| 20260905212436 | 20 | 323 | 4.8 | 6.4 | 0.00 | 0.00 | 0.00 | 60 | 1019.6 |
| 20260905211935 | 21 | 180 | 1.6 | 3.2 | 0.00 | 0.00 | 0.00 | 57 | 1019.9 |
| 20260905211431 | 20 | 47 | 3.2 | 6.4 | 0.00 | 0.00 | 0.00 | 59 | 1019.9 |
| 20260905210926 | 21 | 88 | 0.0 | 3.2 | 0.00 | 0.00 | 0.00 | 58 | 1019.9 |
| 20260905210421 | 20 | 87 | 1.6 | 1.6 | 0.00 | 0.00 | 0.00 | 57 | 1019.9 |
| 20260905205920 | 21 | 103 | 1.6 | 4.8 | 0.00 | 0.00 | 0.00 | 59 | 1019.9 |
| 20260905205415 | 20 | 114 | 0.0 | 4.8 | 0.00 | 0.00 | 0.00 | 59 | 1019.9 |
| 20260905204914 | 20 | 62 | 1.6 | 3.2 | 0.00 | 0.00 | 0.00 | 59 | 1019.9 |
| 20260905204410 | 20 | 59 | 1.6 | 3.2 | 0.00 | 0.00 | 0.00 | 59 | 1019.9 |
| 20260905203909 | 20 | 91 | 0.0 | 4.8 | 0.00 | 0.00 | 0.00 | 60 | 1019.9 |
| 20260905203405 | 20 | 108 | 1.6 | 4.8 | 0.00 | 0.00 | 0.00 | 59 | 1019.9 |
| 20260905202900 | 20 | 112 | 3.2 | 3.2 | 0.00 | 0.00 | 0.00 | 58 | 1020.2 |
| 20260905202355 | 20 | 43 | 3.2 | 6.4 | 0.00 | 0.00 | 0.00 | 59 | 1019.9 |
| 20260905201850 | 20 | 77 | 1.6 | 3.2 | 0.00 | 0.00 | 0.00 | 60 | 1020.2 |
| 20260905201345 | 20 | 46 | 4.8 | 6.4 | 0.00 | 0.00 | 0.00 | 60 | 1019.9 |
| 20260905200840 | 20 | 39 | 4.8 | 9.7 | 0.00 | 0.00 | 0.00 | 61 | 1019.9 |
| 20260905200336 | 20 | 93 | 0.0 | 6.4 | 0.00 | 0.00 | 0.00 | 63 | 1019.9 |
| 20260905195833 | 20 | 117 | 1.6 | 3.2 | 0.00 | 0.00 | 0.00 | 61 | 1019.9 |
| 20260905195328 | 20 | 102 | 0.0 | 1.6 | 0.00 | 0.00 | 0.00 | 60 | 1019.9 |
| 20260905194825 | 19 | 66 | 0.0 | 6.4 | 0.00 | 0.00 | 0.00 | 64 | 1019.9 |
| 20260905194319 | 20 | 50 | 3.2 | 4.8 | 0.00 | 0.00 | 0.00 | 63 | 1019.9 |
| 20260905193818 | 18 | 103 | 0.0 | 6.4 | 0.00 | 0.00 | 0.00 | 66 | 1019.9 |
| 20260905193313 | 19 | 82 | 3.2 | 6.4 | 0.00 | 0.00 | 0.00 | 65 | 1019.9 |
| 20260905192809 | 20 | 42 | 3.2 | 4.8 | 0.00 | 0.00 | 0.00 | 63 | 1019.9 |
| 20260905192306 | 20 | 93 | 1.6 | 3.2 | 0.00 | 0.00 | 0.00 | 63 | 1020.2 |
| 20260905191804 | 19 | 116 | 0.0 | 3.2 | 0.00 | 0.00 | 0.00 | 65 | 1019.9 |
| 20260905191302 | 18 | 118 | 3.2 | 12.9 | 0.00 | 0.00 | 0.00 | 68 | 1019.9 |
| 20260905190801 | 18 | 124 | 4.8 | 14.5 | 0.00 | 0.00 | 0.00 | 68 | 1020.2 |
| 20260905190255 | 18 | 135 | 1.6 | 14.5 | 0.00 | 0.00 | 0.00 | 69 | 1020.2 |
| 20260905185754 | 18 | 193 | 3.2 | 11.3 | 0.00 | 0.00 | 0.00 | 70 | 1020.2 |
| 20260905185249 | 18 | 176 | 8.0 | 12.9 | 0.00 | 0.00 | 0.00 | 69 | 1020.2 |
| 20260905184748 | 18 | 107 | 0.0 | 9.7 | 0.00 | 0.00 | 0.00 | 70 | 1019.9 |
| 20260905184242 | 18 | 133 | 4.8 | 12.9 | 0.00 | 0.00 | 0.00 | 71 | 1020.2 |
| 20260905183741 | 18 | 233 | 3.2 | 9.7 | 0.00 | 0.00 | 0.00 | 71 | 1020.2 |
| 20260905183236 | 18 | 184 | 8.0 | 11.3 | 0.00 | 0.00 | 0.00 | 70 | 1020.2 |
| 20260905182731 | 18 | 175 | 3.2 | 9.7 | 0.00 | 0.00 | 0.00 | 69 | 1020.2 |
| 20260905182230 | 18 | 112 | 3.2 | 3.2 | 0.00 | 0.00 | 0.00 | 69 | 1020.2 |
| 20260905181726 | 18 | 166 | 11.3 | 12.9 | 0.00 | 0.00 | 0.00 | 69 | 1020.2 |
| 20260905181224 | 18 | 88 | 3.2 | 9.7 | 0.00 | 0.00 | 0.00 | 68 | 1020.2 |
| 20260905180719 | 18 | 102 | 1.6 | 4.8 | 0.00 | 0.00 | 0.00 | 68 | 1020.2 |
| 20260905180214 | 18 | 177 | 11.3 | 12.9 | 0.00 | 0.00 | 0.00 | 66 | 1020.2 |
| 20260905175709 | 18 | 114 | 3.2 | 6.4 | 0.00 | 0.00 | 0.00 | 68 | 1020.6 |
| 20260905175204 | 18 | 149 | 4.8 | 6.4 | 0.00 | 0.00 | 0.00 | 68 | 1020.6 |
| 20260905174659 | 18 | 117 | 3.2 | 9.7 | 0.00 | 0.00 | 0.00 | 69 | 1020.6 |
| 20260905174155 | 18 | 86 | 3.2 | 9.7 | 0.00 | 0.00 | 0.00 | 69 | 1020.6 |
| 20260905173650 | 18 | 146 | 1.6 | 6.4 | 0.00 | 0.00 | 0.00 | 70 | 1020.2 |
| 20260905173146 | 18 | 183 | 3.2 | 6.4 | 0.00 | 0.00 | 0.00 | 68 | 1020.6 |
| 20260905172645 | 18 | 108 | 0.0 | 4.8 | 0.00 | 0.00 | 0.00 | 68 | 1020.2 |
| 20260905172139 | 18 | 95 | 0.0 | 4.8 | 0.00 | 0.00 | 0.00 | 68 | 1020.2 |
| 20260905171635 | 18 | 149 | 1.6 | 1.6 | 0.00 | 0.00 | 0.00 | 69 | 1020.2 |
| 20260905171131 | 17 | 140 | 0.0 | 1.6 | 0.00 | 0.00 | 0.00 | 71 | 1020.6 |
| 20260905170627 | 17 | 65 | 1.6 | 1.6 | 0.00 | 0.00 | 0.00 | 71 | 1020.2 |
| 20260905170122 | 17 | 218 | 1.6 | 3.2 | 0.00 | 0.00 | 0.00 | 71 | 1020.2 |
| 20260905165617 | 17 | 178 | 3.2 | 6.4 | 0.00 | 0.00 | 0.00 | 71 | 1020.2 |
| 20260905165112 | 17 | 180 | 3.2 | 3.2 | 0.00 | 0.00 | 0.00 | 72 | 1020.2 |
| 20260905164602 | 16 | 146 | 3.2 | 4.8 | 0.00 | 0.00 | 0.00 | 73 | 1020.2 |
| 20260905164101 | 16 | 157 | 0.0 | 1.6 | 0.00 | 0.00 | 0.00 | 73 | 1019.9 |
| 20260905163558 | 16 | 171 | 0.0 | 1.6 | 0.00 | 0.00 | 0.00 | 74 | 1019.9 |
| 20260905163054 | 15 | 197 | 4.8 | 6.4 | 0.00 | 0.00 | 0.00 | 76 | 1020.2 |
| 20260905162550 | 15 | 36 | 1.6 | 4.8 | 0.00 | 0.00 | 0.00 | 76 | 1019.9 |
| 20260905162044 | 15 | 303 | 1.6 | 3.2 | 0.00 | 0.00 | 0.00 | 76 | 1019.6 |
| 20260905161543 | 15 | 234 | 1.6 | 3.2 | 0.00 | 0.00 | 0.00 | 76 | 1019.9 |
| 20260905161041 | 15 | 80 | 1.6 | 1.6 | 0.00 | 0.00 | 0.00 | 77 | 1019.9 |
| 20260905160540 | 15 | 81 | 1.6 | 1.6 | 0.00 | 0.00 | 0.00 | 77 | 1019.9 |
| 20260905160035 | 15 | 124 | 0.0 | 0.0 | 0.00 | 0.00 | 0.00 | 77 | 1019.9 |
| 20260905155534 | 15 | 78 | 1.6 | 3.2 | 0.00 | 0.00 | 0.00 | 77 | 1019.9 |
| 20260905155033 | 14 | 103 | 0.0 | 1.6 | 0.00 | 0.00 | 0.00 | 77 | 1019.9 |
| 20260905154528 | 14 | 104 | 0.0 | 3.2 | 0.00 | 0.00 | 0.00 | 77 | 1019.9 |
| 20260905154024 | 14 | 86 | 0.0 | 1.6 | 0.00 | 0.00 | 0.00 | 77 | 1019.9 |
| 20260905153520 | 14 | 99 | 0.0 | 3.2 | 0.00 | 0.00 | 0.00 | 77 | 1019.9 |
| 20260905153019 | 14 | 87 | 0.0 | 3.2 | 0.00 | 0.00 | 0.00 | 77 | 1019.9 |
| 20260905152514 | 13 | 296 | 1.6 | 1.6 | 0.00 | 0.00 | 0.00 | 77 | 1020.2 |
| 20260905152009 | 13 | 97 | 0.0 | 1.6 | 0.00 | 0.00 | 0.00 | 77 | 1019.9 |
| 20260905151504 | 13 | 70 | 1.6 | 1.6 | 0.00 | 0.00 | 0.00 | 77 | 1019.9 |
| 20260905150959 | 13 | 99 | 0.0 | 1.6 | 0.00 | 0.00 | 0.00 | 77 | 1019.9 |
| 20260905150454 | 13 | 112 | 0.0 | 3.2 | 0.00 | 0.00 | 0.00 | 77 | 1019.9 |
| 20260905145951 | 13 | 100 | 0.0 | 3.2 | 0.00 | 0.00 | 0.00 | 77 | 1019.9 |
| 20260905145445 | 13 | 103 | 0.0 | 0.0 | 0.00 | 0.00 | 0.00 | 78 | 1019.9 |
| 20260905144945 | 12 | 104 | 0.0 | 3.2 | 0.00 | 0.00 | 0.00 | 78 | 1019.9 |
| 20260905144441 | 12 | 101 | 0.0 | 0.0 | 0.00 | 0.00 | 0.00 | 81 | 1019.9 |
| 20260905143939 | 12 | 206 | 0.0 | 3.2 | 0.00 | 0.00 | 0.00 | 81 | 1019.9 |
| 20260905143438 | 12 | 112 | 0.0 | 1.6 | 0.00 | 0.00 | 0.00 | 83 | 1019.9 |
| 20260905142933 | 12 | 124 | 0.0 | 0.0 | 0.00 | 0.00 | 0.00 | 84 | 1019.9 |
| 20260905142432 | 12 | 112 | 0.0 | 1.6 | 0.00 | 0.00 | 0.00 | 86 | 1019.6 |
| 20260905141928 | 11 | 114 | 0.0 | 0.0 | 0.00 | 0.00 | 0.00 | 87 | 1019.6 |
| 20260905141422 | 11 | 99 | 0.0 | 0.0 | 0.00 | 0.00 | 0.00 | 88 | 1019.6 |
| 20260905140919 | 11 | 101 | 0.0 | 1.6 | 0.00 | 0.00 | 0.00 | 88 | 1019.6 |
| 20260905140414 | 11 | 109 | 0.0 | 0.0 | 0.00 | 0.00 | 0.00 | 89 | 1019.6 |
| 20260905135912 | 11 | 102 | 0.0 | 0.0 | 0.00 | 0.00 | 0.00 | 89 | 1019.6 |
| 20260905135408 | 11 | 100 | 0.0 | 0.0 | 0.00 | 0.00 | 0.00 | 89 | 1019.6 |
| 20260905134904 | 11 | 105 | 0.0 | 0.0 | 0.00 | 0.00 | 0.00 | 89 | 1019.6 |
| 20260905134403 | 11 | 114 | 0.0 | 1.6 | 0.00 | 0.00 | 0.00 | 90 | 1019.6 |
| 20260905133857 | 11 | 172 | 1.6 | 1.6 | 0.00 | 0.00 | 0.00 | 90 | 1019.6 |
| 20260905133352 | 10 | 96 | 0.0 | 0.0 | 0.00 | 0.00 | 0.00 | 90 | 1019.6 |
| 20260905132851 | 10 | 103 | 0.0 | 0.0 | 0.00 | 0.00 | 0.00 | 91 | 1019.6 |
| 20260905132346 | 10 | 103 | 0.0 | 0.0 | 0.00 | 0.00 | 0.00 | 91 | 1019.6 |
| 20260905131841 | 10 | 89 | 0.0 | 0.0 | 0.00 | 0.00 | 0.00 | 91 | 1019.6 |
| 20260905131336 | 10 | 89 | 0.0 | 0.0 | 0.00 | 0.00 | 0.00 | 91 | 1019.6 |
| 20260905130832 | 10 | 103 | 0.0 | 0.0 | 0.00 | 0.00 | 0.00 | 91 | 1019.6 |
| 20260905130330 | 10 | 106 | 0.0 | 0.0 | 0.00 | 0.00 | 0.00 | 91 | 1019.6 |
| 20260905125826 | 10 | 106 | 0.0 | 0.0 | 0.00 | 0.00 | 0.00 | 91 | 1019.6 |
| 20260905125321 | 10 | 106 | 0.0 | 0.0 | 0.00 | 0.00 | 0.00 | 91 | 1019.6 |
| 20260905124817 | 10 | 77 | 0.0 | 1.6 | 0.00 | 0.00 | 0.00 | 91 | 1019.6 |
| 20260905124313 | 10 | 105 | 0.0 | 0.0 | 0.00 | 0.00 | 0.00 | 91 | 1019.6 |
| 20260905123808 | 10 | 88 | 0.0 | 1.6 | 0.00 | 0.00 | 0.00 | 91 | 1019.6 |
| 20260905123305 | 10 | 104 | 0.0 | 0.0 | 0.00 | 0.00 | 0.00 | 91 | 1019.6 |
| 20260905122804 | 10 | 104 | 0.0 | 0.0 | 0.00 | 0.00 | 0.00 | 91 | 1019.6 |
| 20260905122306 | 10 | 102 | 0.0 | 0.0 | 0.00 | 0.00 | 0.00 | 91 | 1019.6 |
| 20260905121759 | 10 | 104 | 0.0 | 0.0 | 0.00 | 0.00 | 0.00 | 91 | 1019.6 |
| 20260905121256 | 10 | 104 | 0.0 | 0.0 | 0.00 | 0.00 | 0.00 | 91 | 1019.6 |
| 20260905120754 | 10 | 103 | 0.0 | 0.0 | 0.00 | 0.00 | 0.00 | 91 | 1019.6 |
| 20260905120253 | 10 | 104 | 0.0 | 0.0 | 0.00 | 0.00 | 0.00 | 91 | 1019.2 |
| 20260905115748 | 10 | 104 | 0.0 | 0.0 | 0.00 | 0.00 | 0.00 | 91 | 1019.6 |
| 20260905115243 | 10 | 118 | 0.0 | 0.0 | 0.00 | 0.00 | 0.00 | 91 | 1019.2 |
| 20260905114742 | 10 | 127 | 0.0 | 0.0 | 0.00 | 0.00 | 0.00 | 91 | 1019.2 |
| 20260905114241 | 10 | 124 | 0.0 | 0.0 | 0.00 | 0.00 | 0.00 | 91 | 1019.2 |
| 20260905113740 | 10 | 132 | 0.0 | 0.0 | 0.00 | 0.00 | 0.00 | 91 | 1019.2 |
| 20260905113236 | 10 | 113 | 0.0 | 0.0 | 0.00 | 0.00 | 0.00 | 90 | 1019.2 |
| 20260905112731 | 10 | 113 | 0.0 | 0.0 | 0.00 | 0.00 | 0.00 | 90 | 1019.2 |
| 20260905112226 | 10 | 113 | 0.0 | 0.0 | 0.00 | 0.00 | 0.00 | 90 | 1019.6 |
| 20260905111721 | 10 | 114 | 0.0 | 0.0 | 0.00 | 0.00 | 0.00 | 90 | 1019.2 |
| 20260905111215 | 11 | 113 | 0.0 | 0.0 | 0.00 | 0.00 | 0.00 | 90 | 1019.2 |
| 20260905110714 | 11 | 113 | 0.0 | 0.0 | 0.00 | 0.00 | 0.00 | 90 | 1019.2 |
| 20260905110209 | 11 | 99 | 0.0 | 1.6 | 0.00 | 0.00 | 0.00 | 90 | 1019.2 |
| 20260905105705 | 11 | 29 | 0.0 | 1.6 | 0.00 | 0.00 | 0.00 | 90 | 1019.2 |
| 20260905105203 | 11 | 119 | 0.0 | 0.0 | 0.00 | 0.00 | 0.00 | 90 | 1019.2 |
| 20260905104658 | 11 | 93 | 0.0 | 0.0 | 0.00 | 0.00 | 0.00 | 90 | 1019.2 |
| 20260905104154 | 11 | 112 | 0.0 | 0.0 | 0.00 | 0.00 | 0.00 | 90 | 1019.2 |
| 20260905103649 | 11 | 124 | 0.0 | 0.0 | 0.00 | 0.00 | 0.00 | 90 | 1019.2 |
| 20260905103145 | 11 | 128 | 0.0 | 0.0 | 0.00 | 0.00 | 0.00 | 90 | 1019.2 |
| 20260905102641 | 11 | 108 | 0.0 | 3.2 | 0.00 | 0.00 | 0.00 | 90 | 1019.2 |
| 20260905102137 | 11 | 110 | 0.0 | 3.2 | 0.00 | 0.00 | 0.00 | 91 | 1019.2 |
| 20260905101636 | 11 | 98 | 0.0 | 1.6 | 0.00 | 0.00 | 0.00 | 91 | 1019.2 |
| 20260905101134 | 11 | 105 | 1.6 | 3.2 | 0.00 | 0.00 | 0.00 | 91 | 1019.2 |
| 20260905100630 | 11 | 113 | 0.0 | 0.0 | 0.00 | 0.00 | 0.00 | 91 | 1019.2 |
| 20260905100125 | 11 | 95 | 0.0 | 0.0 | 0.00 | 0.00 | 0.00 | 91 | 1019.2 |
| 20260905095619 | 11 | 97 | 0.0 | 0.0 | 0.00 | 0.00 | 0.00 | 91 | 1019.2 |
| 20260905095114 | 11 | 87 | 0.0 | 0.0 | 0.00 | 0.00 | 0.00 | 91 | 1019.2 |
| 20260905094610 | 11 | 106 | 0.0 | 0.0 | 0.00 | 0.00 | 0.00 | 91 | 1018.9 |
| 20260905094108 | 11 | 67 | 0.0 | 0.0 | 0.00 | 0.00 | 0.00 | 91 | 1019.2 |
| 20260905093603 | 11 | 67 | 0.0 | 0.0 | 0.00 | 0.00 | 0.00 | 91 | 1019.2 |
| 20260905093100 | 11 | 67 | 0.0 | 0.0 | 0.00 | 0.00 | 0.00 | 91 | 1019.2 |
| 20260905092559 | 11 | 67 | 0.0 | 0.0 | 0.00 | 0.00 | 0.00 | 91 | 1019.2 |
| 20260905092055 | 11 | 67 | 0.0 | 1.6 | 0.00 | 0.00 | 0.00 | 91 | 1019.2 |
| 20260905091554 | 11 | 69 | 0.0 | 1.6 | 0.00 | 0.00 | 0.00 | 91 | 1019.2 |
| 20260905091048 | 11 | 79 | 1.6 | 3.2 | 0.00 | 0.00 | 0.00 | 91 | 1019.2 |
| 20260905090543 | 11 | 104 | 0.0 | 1.6 | 0.00 | 0.00 | 0.00 | 91 | 1019.6 |
| 20260905090038 | 11 | 113 | 1.6 | 3.2 | 0.00 | 0.00 | 0.00 | 90 | 1019.2 |
| 20260905085536 | 11 | 107 | 0.0 | 0.0 | 0.00 | 0.00 | 0.00 | 90 | 1019.2 |
| 20260905085032 | 11 | 112 | 0.0 | 0.0 | 0.00 | 0.00 | 0.00 | 90 | 1019.2 |
| 20260905084531 | 11 | 103 | 0.0 | 0.0 | 0.00 | 0.00 | 0.00 | 90 | 1019.2 |
| 20260905084027 | 11 | 110 | 0.0 | 0.0 | 0.00 | 0.00 | 0.00 | 90 | 1019.2 |
| 20260905083516 | 11 | 109 | 0.0 | 0.0 | 0.00 | 0.00 | 0.00 | 90 | 1019.2 |
| 20260905083012 | 11 | 132 | 1.6 | 1.6 | 0.00 | 0.00 | 0.00 | 90 | 1019.2 |
| 20260905082502 | 11 | 115 | 0.0 | 0.0 | 0.00 | 0.00 | 0.00 | 89 | 1018.9 |
| 20260905081957 | 12 | 123 | 0.0 | 0.0 | 0.00 | 0.00 | 0.00 | 89 | 1018.9 |
| 20260905081452 | 12 | 121 | 0.0 | 0.0 | 0.00 | 0.00 | 0.00 | 89 | 1019.2 |
| 20260905080951 | 12 | 111 | 0.0 | 0.0 | 0.00 | 0.00 | 0.00 | 89 | 1018.9 |
| 20260905080446 | 12 | 293 | 0.0 | 1.6 | 0.00 | 0.00 | 0.00 | 88 | 1018.9 |
| 20260905075945 | 12 | 96 | 1.6 | 1.6 | 0.00 | 0.00 | 0.00 | 88 | 1018.9 |
| 20260905075440 | 12 | 283 | 0.0 | 1.6 | 0.00 | 0.00 | 0.00 | 88 | 1019.2 |
| 20260905074938 | 12 | 116 | 0.0 | 1.6 | 0.00 | 0.00 | 0.00 | 88 | 1019.2 |
| 20260905074434 | 12 | 102 | 0.0 | 0.0 | 0.00 | 0.00 | 0.00 | 88 | 1018.9 |
| 20260905073930 | 12 | 92 | 0.0 | 0.0 | 0.00 | 0.00 | 0.00 | 88 | 1018.9 |
| 20260905073424 | 12 | 111 | 0.0 | 1.6 | 0.00 | 0.00 | 0.00 | 88 | 1018.9 |
| 20260905072920 | 12 | 112 | 0.0 | 1.6 | 0.00 | 0.00 | 0.00 | 88 | 1018.9 |
| 20260905072415 | 12 | 95 | 0.0 | 0.0 | 0.00 | 0.00 | 0.00 | 88 | 1018.9 |
| 20260905071911 | 12 | 112 | 0.0 | 0.0 | 0.00 | 0.00 | 0.00 | 87 | 1018.9 |
| 20260905071407 | 12 | 109 | 0.0 | 0.0 | 0.00 | 0.00 | 0.00 | 87 | 1018.9 |
| 20260905070901 | 12 | 113 | 0.0 | 0.0 | 0.00 | 0.00 | 0.00 | 87 | 1019.2 |
| 20260905070357 | 12 | 112 | 0.0 | 0.0 | 0.00 | 0.00 | 0.00 | 87 | 1018.9 |
| 20260905065857 | 12 | 114 | 0.0 | 1.6 | 0.00 | 0.18 | 0.18 | 87 | 1018.9 |
| 20260905065355 | 12 | 128 | 0.0 | 0.0 | 0.00 | 0.18 | 0.18 | 87 | 1018.9 |
| 20260905064851 | 12 | 127 | 0.0 | 0.0 | 0.00 | 0.18 | 0.18 | 86 | 1018.9 |
| 20260905064346 | 12 | 137 | 0.0 | 0.0 | 0.00 | 0.18 | 0.18 | 86 | 1018.9 |
| 20260905063844 | 12 | 116 | 0.0 | 0.0 | 0.00 | 0.18 | 0.18 | 86 | 1018.9 |
| 20260905063340 | 12 | 108 | 0.0 | 0.0 | 0.00 | 0.18 | 0.18 | 86 | 1018.5 |
| 20260905062836 | 12 | 108 | 0.0 | 0.0 | 0.00 | 0.18 | 0.18 | 86 | 1018.5 |
| 20260905062331 | 12 | 123 | 0.0 | 0.0 | 0.00 | 0.18 | 0.18 | 85 | 1018.9 |
| 20260905061826 | 12 | 132 | 0.0 | 0.0 | 0.00 | 0.18 | 0.18 | 85 | 1018.5 |
| 20260905061326 | 12 | 132 | 0.0 | 0.0 | 0.00 | 0.18 | 0.18 | 85 | 1018.5 |
| 20260905060820 | 12 | 130 | 0.0 | 0.0 | 0.00 | 0.18 | 0.18 | 85 | 1018.5 |
| 20260905060317 | 13 | 132 | 0.0 | 0.0 | 0.00 | 0.18 | 0.18 | 85 | 1018.9 |
| 20260905055816 | 13 | 124 | 0.0 | 1.6 | 0.00 | 0.18 | 0.18 | 85 | 1018.9 |
| 20260905055311 | 13 | 130 | 0.0 | 0.0 | 0.00 | 0.18 | 0.18 | 84 | 1018.5 |
| 20260905054811 | 13 | 128 | 0.0 | 0.0 | 0.00 | 0.18 | 0.18 | 84 | 1018.5 |
| 20260905054308 | 13 | 129 | 0.0 | 0.0 | 0.00 | 0.18 | 0.18 | 84 | 1018.5 |
| 20260905053806 | 13 | 121 | 0.0 | 0.0 | 0.00 | 0.18 | 0.18 | 84 | 1018.9 |
| 20260905053301 | 13 | 121 | 0.0 | 0.0 | 0.00 | 0.18 | 0.18 | 84 | 1018.9 |
| 20260905052756 | 13 | 114 | 0.0 | 0.0 | 0.00 | 0.18 | 0.18 | 83 | 1018.5 |
| 20260905052250 | 13 | 114 | 0.0 | 0.0 | 0.00 | 0.18 | 0.18 | 83 | 1018.9 |
| 20260905051750 | 13 | 105 | 1.6 | 1.6 | 0.00 | 0.18 | 0.18 | 83 | 1018.5 |
| 20260905051247 | 13 | 104 | 0.0 | 1.6 | 0.00 | 0.18 | 0.18 | 83 | 1018.5 |
| 20260905050743 | 13 | 112 | 0.0 | 0.0 | 0.00 | 0.18 | 0.18 | 82 | 1018.5 |
| 20260905050240 | 13 | 80 | 0.0 | 3.2 | 0.00 | 0.18 | 0.18 | 82 | 1018.5 |
| 20260905045739 | 13 | 156 | 0.0 | 1.6 | 0.00 | 0.18 | 0.18 | 82 | 1018.5 |
| 20260905045235 | 13 | 151 | 0.0 | 1.6 | 0.00 | 0.18 | 0.18 | 82 | 1018.9 |
| 20260905044730 | 13 | 134 | 0.0 | 1.6 | 0.00 | 0.18 | 0.18 | 82 | 1018.9 |
| 20260905044225 | 13 | 112 | 0.0 | 0.0 | 0.00 | 0.18 | 0.18 | 82 | 1018.9 |
| 20260905043723 | 13 | 58 | 0.0 | 0.0 | 0.00 | 0.18 | 0.18 | 82 | 1018.9 |
| 20260905043218 | 13 | 99 | 0.0 | 0.0 | 0.00 | 0.18 | 0.18 | 81 | 1018.5 |
| 20260905042713 | 13 | 111 | 0.0 | 0.0 | 0.00 | 0.18 | 0.18 | 81 | 1018.9 |